| time (UTC) | temp F | wind direction | speed MPH | gust MPH | rain 1hr in | rain 24hr in | rain mn in | humidity % | barometer mb |
| 20260901095826 | 68 | 311 | 6.0 | 17.0 | 0.00 | 0.00 | 0.00 | 69 | 1017.5 |
| 20260901095330 | 69 | 281 | 7.0 | 17.0 | 0.00 | 0.00 | 0.00 | 70 | 1017.6 |
| 20260901094812 | 68 | 296 | 8.0 | 19.0 | 0.00 | 0.00 | 0.00 | 70 | 1017.4 |
| 20260901094314 | 68 | 265 | 7.0 | 21.0 | 0.00 | 0.00 | 0.00 | 70 | 1017.4 |
| 20260901093814 | 68 | 268 | 14.0 | 21.0 | 0.00 | 0.00 | 0.00 | 68 | 1017.4 |
| 20260901093333 | 68 | 259 | 7.0 | 22.0 | 0.00 | 0.00 | 0.00 | 70 | 1017.3 |
| 20260901092813 | 68 | 293 | 9.0 | 26.0 | 0.00 | 0.00 | 0.00 | 69 | 1017.4 |
| 20260901092312 | 68 | 249 | 11.0 | 26.0 | 0.00 | 0.00 | 0.00 | 69 | 1017.2 |
| 20260901091832 | 68 | 284 | 10.0 | 19.0 | 0.00 | 0.00 | 0.00 | 69 | 1017.2 |
| 20260901091332 | 67 | 271 | 11.0 | 20.0 | 0.00 | 0.00 | 0.00 | 71 | 1017.3 |
| 20260901090813 | 67 | 281 | 9.0 | 21.0 | 0.00 | 0.00 | 0.00 | 72 | 1017.2 |
| 20260901090316 | 66 | 290 | 12.0 | 21.0 | 0.00 | 0.00 | 0.00 | 72 | 1017.2 |
| 20260901085818 | 66 | 269 | 7.0 | 12.0 | 0.00 | 0.00 | 0.00 | 74 | 1017.2 |
| 20260901085320 | 66 | 243 | 3.0 | 14.0 | 0.00 | 0.00 | 0.00 | 76 | 1017.1 |
| 20260901084823 | 66 | 262 | 5.0 | 14.0 | 0.00 | 0.00 | 0.00 | 76 | 1017.1 |
| 20260901084345 | 65 | 252 | 5.0 | 15.0 | 0.00 | 0.00 | 0.00 | 77 | 1017.1 |
| 20260901083825 | 65 | 271 | 9.0 | 15.0 | 0.00 | 0.00 | 0.00 | 77 | 1017.1 |
| 20260901083327 | 65 | 293 | 7.0 | 17.0 | 0.00 | 0.00 | 0.00 | 79 | 1017.1 |
| 20260901082831 | 65 | 278 | 7.0 | 13.0 | 0.00 | 0.00 | 0.00 | 79 | 1017.1 |
| 20260901082312 | 64 | 268 | 3.0 | 10.0 | 0.00 | 0.00 | 0.00 | 80 | 1017.1 |
| 20260901081843 | 64 | 267 | 4.0 | 16.0 | 0.00 | 0.00 | 0.00 | 80 | 1017.0 |
| 20260901081325 | 64 | 267 | 9.0 | 16.0 | 0.00 | 0.00 | 0.00 | 80 | 1017.0 |
| 20260901080826 | 64 | 276 | 6.0 | 13.0 | 0.00 | 0.00 | 0.00 | 80 | 1017.0 |
| 20260901080327 | 64 | 255 | 5.0 | 13.0 | 0.00 | 0.00 | 0.00 | 81 | 1016.9 |
| 20260901075826 | 64 | 263 | 5.0 | 13.0 | 0.00 | 0.00 | 0.00 | 81 | 1016.9 |
| 20260901075326 | 63 | 229 | 8.0 | 13.0 | 0.00 | 0.00 | 0.00 | 81 | 1016.8 |
| 20260901074828 | 63 | 262 | 5.0 | 13.0 | 0.00 | 0.00 | 0.00 | 82 | 1016.8 |
| 20260901074329 | 63 | 257 | 5.0 | 11.0 | 0.00 | 0.00 | 0.00 | 82 | 1016.8 |
| 20260901073829 | 63 | 275 | 5.0 | 13.0 | 0.00 | 0.00 | 0.00 | 82 | 1016.8 |
| 20260901073330 | 63 | 266 | 7.0 | 13.0 | 0.00 | 0.00 | 0.00 | 82 | 1016.7 |
| 20260901072831 | 62 | 274 | 8.0 | 13.0 | 0.00 | 0.00 | 0.00 | 83 | 1016.7 |
| 20260901072332 | 62 | 255 | 5.0 | 13.0 | 0.00 | 0.00 | 0.00 | 83 | 1016.6 |
| 20260901071813 | 62 | 276 | 6.0 | 13.0 | 0.00 | 0.00 | 0.00 | 84 | 1016.5 |
| 20260901071316 | 62 | 274 | 7.0 | 13.0 | 0.00 | 0.00 | 0.00 | 84 | 1016.5 |
| 20260901070820 | 62 | 233 | 7.0 | 14.0 | 0.00 | 0.00 | 0.00 | 84 | 1016.4 |
| 20260901070323 | 62 | 241 | 4.0 | 15.0 | 0.00 | 0.00 | 0.00 | 84 | 1016.4 |
| 20260901065825 | 62 | 238 | 7.0 | 15.0 | 0.00 | 0.00 | 0.00 | 84 | 1016.4 |
| 20260901065328 | 62 | 268 | 8.0 | 16.0 | 0.00 | 0.00 | 0.00 | 83 | 1016.4 |
| 20260901064832 | 62 | 256 | 9.0 | 16.0 | 0.00 | 0.00 | 0.00 | 83 | 1016.3 |
| 20260901064334 | 62 | 288 | 7.0 | 15.0 | 0.00 | 0.00 | 0.00 | 84 | 1016.3 |
| 20260901063815 | 62 | 267 | 7.0 | 16.0 | 0.00 | 0.00 | 0.00 | 84 | 1016.2 |
| 20260901063316 | 62 | 262 | 8.0 | 16.0 | 0.00 | 0.00 | 0.00 | 83 | 1016.3 |
| 20260901062817 | 62 | 231 | 7.0 | 14.0 | 0.00 | 0.00 | 0.00 | 83 | 1016.2 |
| 20260901062316 | 61 | 267 | 8.0 | 14.0 | 0.00 | 0.00 | 0.00 | 84 | 1016.2 |
| 20260901061819 | 61 | 241 | 6.0 | 12.0 | 0.00 | 0.00 | 0.00 | 84 | 1016.1 |
| 20260901061321 | 61 | 243 | 7.0 | 12.0 | 0.00 | 0.00 | 0.00 | 84 | 1016.1 |
| 20260901060844 | 61 | 243 | 6.0 | 15.0 | 0.00 | 0.00 | 0.00 | 84 | 1016.0 |
| 20260901060324 | 61 | 279 | 9.0 | 15.0 | 0.00 | 0.00 | 0.00 | 84 | 1016.0 |
| 20260901055846 | 61 | 157 | 6.0 | 14.0 | 0.00 | 0.00 | 0.00 | 84 | 1016.0 |
| 20260901055348 | 61 | 248 | 5.0 | 16.0 | 0.00 | 0.00 | 0.00 | 84 | 1015.9 |
| 20260901054829 | 61 | 267 | 8.0 | 16.0 | 0.00 | 0.00 | 0.00 | 84 | 1015.8 |
| 20260901054348 | 61 | 244 | 7.0 | 13.0 | 0.00 | 0.00 | 0.00 | 84 | 1015.8 |
| 20260901053813 | 61 | 257 | 7.0 | 15.0 | 0.00 | 0.00 | 0.00 | 84 | 1015.7 |
| 20260901053315 | 61 | 229 | 8.0 | 15.0 | 0.00 | 0.00 | 0.00 | 84 | 1015.7 |
| 20260901052818 | 60 | 252 | 5.0 | 15.0 | 0.00 | 0.00 | 0.00 | 85 | 1015.7 |
| 20260901052322 | 60 | 259 | 9.0 | 15.0 | 0.00 | 0.00 | 0.00 | 85 | 1015.6 |
| 20260901051827 | 60 | 207 | 5.0 | 15.0 | 0.00 | 0.00 | 0.00 | 85 | 1015.5 |
| 20260901051330 | 60 | 259 | 6.0 | 12.0 | 0.00 | 0.00 | 0.00 | 85 | 1015.6 |
| 20260901050831 | 60 | 240 | 5.0 | 13.0 | 0.00 | 0.00 | 0.00 | 85 | 1015.4 |
| 20260901050312 | 60 | 239 | 8.0 | 13.0 | 0.00 | 0.00 | 0.00 | 85 | 1015.4 |
| 20260901045813 | 60 | 286 | 5.0 | 12.0 | 0.00 | 0.00 | 0.00 | 85 | 1015.3 |
| 20260901045335 | 60 | 262 | 5.0 | 16.0 | 0.00 | 0.00 | 0.00 | 85 | 1015.3 |
| 20260901044831 | 60 | 256 | 8.0 | 16.0 | 0.00 | 0.00 | 0.00 | 85 | 1015.2 |
| 20260901044330 | 60 | 30 | 7.0 | 16.0 | 0.00 | 0.00 | 0.00 | 85 | 1015.1 |
| 20260901043831 | 60 | 276 | 7.0 | 16.0 | 0.00 | 0.00 | 0.00 | 85 | 1015.1 |
| 20260901043332 | 60 | 264 | 6.0 | 17.0 | 0.00 | 0.00 | 0.00 | 85 | 1014.9 |
| 20260901042832 | 60 | 264 | 8.0 | 17.0 | 0.00 | 0.00 | 0.00 | 84 | 1014.9 |
| 20260901042332 | 60 | 266 | 7.0 | 13.0 | 0.00 | 0.00 | 0.00 | 84 | 1014.8 |
| 20260901041814 | 60 | 247 | 5.0 | 12.0 | 0.00 | 0.00 | 0.00 | 84 | 1014.8 |
| 20260901041315 | 60 | 233 | 6.0 | 11.0 | 0.00 | 0.00 | 0.00 | 85 | 1014.7 |
| 20260901040815 | 60 | 265 | 6.0 | 14.0 | 0.00 | 0.00 | 0.00 | 84 | 1014.7 |
| 20260901040318 | 60 | 257 | 5.0 | 14.0 | 0.00 | 0.00 | 0.00 | 84 | 1014.6 |
| 20260901035822 | 60 | 300 | 6.0 | 13.0 | 0.00 | 0.00 | 0.00 | 84 | 1014.6 |
| 20260901035323 | 60 | 219 | 6.0 | 13.0 | 0.00 | 0.00 | 0.00 | 84 | 1014.6 |
| 20260901034825 | 60 | 259 | 4.0 | 14.0 | 0.00 | 0.00 | 0.00 | 84 | 1014.5 |
| 20260901034325 | 60 | 247 | 5.0 | 14.0 | 0.00 | 0.00 | 0.00 | 84 | 1014.5 |
| 20260901033846 | 60 | 255 | 7.0 | 12.0 | 0.00 | 0.00 | 0.00 | 83 | 1014.4 |
| 20260901033328 | 61 | 217 | 5.0 | 10.0 | 0.00 | 0.00 | 0.00 | 83 | 1014.3 |
| 20260901032831 | 61 | 238 | 5.0 | 13.0 | 0.00 | 0.00 | 0.00 | 83 | 1014.4 |
| 20260901032314 | 61 | 228 | 8.0 | 13.0 | 0.00 | 0.00 | 0.00 | 83 | 1014.4 |
| 20260901031815 | 61 | 260 | 4.0 | 13.0 | 0.00 | 0.00 | 0.00 | 82 | 1014.4 |
| 20260901031318 | 61 | 226 | 5.0 | 13.0 | 0.00 | 0.00 | 0.00 | 82 | 1014.4 |
| 20260901030822 | 61 | 267 | 6.0 | 14.0 | 0.00 | 0.00 | 0.00 | 82 | 1014.4 |
| 20260901030323 | 61 | 275 | 6.0 | 14.0 | 0.00 | 0.00 | 0.00 | 82 | 1014.4 |
| 20260901025826 | 61 | 233 | 8.0 | 14.0 | 0.00 | 0.00 | 0.00 | 82 | 1014.3 |
| 20260901025329 | 61 | 278 | 7.0 | 15.0 | 0.00 | 0.00 | 0.00 | 82 | 1014.3 |
| 20260901024813 | 61 | 198 | 7.0 | 15.0 | 0.00 | 0.00 | 0.00 | 82 | 1014.3 |
| 20260901024315 | 61 | 243 | 6.0 | 11.0 | 0.00 | 0.00 | 0.00 | 82 | 1014.3 |
| 20260901023817 | 61 | 255 | 5.0 | 14.0 | 0.00 | 0.00 | 0.00 | 82 | 1014.2 |
| 20260901023340 | 61 | 231 | 6.0 | 14.0 | 0.00 | 0.00 | 0.00 | 82 | 1014.3 |
| 20260901022842 | 61 | 262 | 7.0 | 12.0 | 0.00 | 0.00 | 0.00 | 82 | 1014.3 |
| 20260901022324 | 61 | 245 | 7.0 | 13.0 | 0.00 | 0.00 | 0.00 | 82 | 1014.4 |
| 20260901021827 | 61 | 187 | 5.0 | 13.0 | 0.00 | 0.00 | 0.00 | 82 | 1014.3 |
| 20260901021349 | 61 | 238 | 6.0 | 13.0 | 0.00 | 0.00 | 0.00 | 82 | 1014.3 |
| 20260901020828 | 61 | 272 | 6.0 | 12.0 | 0.00 | 0.00 | 0.00 | 82 | 1014.2 |
| 20260901020332 | 61 | 259 | 7.0 | 12.0 | 0.00 | 0.00 | 0.00 | 82 | 1014.2 |
| 20260901015814 | 61 | 236 | 4.0 | 13.0 | 0.00 | 0.00 | 0.00 | 82 | 1014.3 |
| 20260901015314 | 61 | 235 | 5.0 | 10.0 | 0.00 | 0.00 | 0.00 | 82 | 1014.3 |
| 20260901014817 | 61 | 283 | 4.0 | 10.0 | 0.00 | 0.00 | 0.00 | 82 | 1014.2 |
| 20260901014320 | 61 | 207 | 4.0 | 7.0 | 0.00 | 0.00 | 0.00 | 82 | 1014.3 |
| 20260901013824 | 61 | 229 | 4.0 | 11.0 | 0.00 | 0.00 | 0.00 | 81 | 1014.3 |
| 20260901013328 | 61 | 250 | 6.0 | 11.0 | 0.00 | 0.00 | 0.00 | 81 | 1014.3 |
| 20260901012831 | 61 | 256 | 4.0 | 11.0 | 0.00 | 0.00 | 0.00 | 81 | 1014.3 |
| 20260901012335 | 61 | 206 | 5.0 | 11.0 | 0.00 | 0.00 | 0.00 | 81 | 1014.4 |
| 20260901011814 | 61 | 271 | 7.0 | 11.0 | 0.00 | 0.00 | 0.00 | 81 | 1014.5 |
| 20260901011316 | 62 | 250 | 5.0 | 11.0 | 0.00 | 0.00 | 0.00 | 81 | 1014.5 |
| 20260901010815 | 62 | 243 | 4.0 | 9.0 | 0.00 | 0.00 | 0.00 | 80 | 1014.5 |
| 20260901010335 | 62 | 235 | 4.0 | 8.0 | 0.00 | 0.00 | 0.00 | 80 | 1014.5 |
| 20260901005814 | 62 | 220 | 4.0 | 7.0 | 0.00 | 0.00 | 0.00 | 80 | 1014.5 |
| 20260901005335 | 62 | 259 | 4.0 | 7.0 | 0.00 | 0.00 | 0.00 | 80 | 1014.5 |
| 20260901004815 | 62 | 228 | 3.0 | 9.0 | 0.00 | 0.00 | 0.00 | 80 | 1014.4 |
| 20260901004318 | 62 | 214 | 3.0 | 12.0 | 0.00 | 0.00 | 0.00 | 79 | 1014.4 |
| 20260901003841 | 62 | 281 | 3.0 | 10.0 | 0.00 | 0.00 | 0.00 | 79 | 1014.3 |
| 20260901003323 | 62 | 239 | 6.0 | 10.0 | 0.00 | 0.00 | 0.00 | 79 | 1014.3 |
| 20260901002817 | 62 | 266 | 5.0 | 10.0 | 0.00 | 0.00 | 0.00 | 79 | 1014.3 |
| 20260901002318 | 62 | 252 | 4.0 | 10.0 | 0.00 | 0.00 | 0.00 | 79 | 1014.3 |
| 20260901001818 | 63 | 281 | 6.0 | 11.0 | 0.00 | 0.00 | 0.00 | 79 | 1014.3 |
| 20260901001320 | 63 | 254 | 6.0 | 13.0 | 0.00 | 0.00 | 0.00 | 79 | 1014.3 |
| 20260901000822 | 63 | 244 | 4.0 | 13.0 | 0.00 | 0.00 | 0.00 | 79 | 1014.2 |
| 20260901000323 | 63 | 269 | 6.0 | 17.0 | 0.00 | 0.00 | 0.00 | 78 | 1014.2 |
| 20260831235825 | 63 | 281 | 7.0 | 17.0 | 0.00 | 0.00 | 0.00 | 78 | 1014.1 |
| 20260831235328 | 63 | 189 | 5.0 | 13.0 | 0.00 | 0.00 | 0.00 | 78 | 1014.1 |
| 20260831234822 | 63 | 267 | 6.0 | 13.0 | 0.00 | 0.00 | 0.00 | 78 | 1014.1 |
| 20260831234324 | 63 | 288 | 4.0 | 12.0 | 0.00 | 0.00 | 0.00 | 79 | 1014.2 |
| 20260831233826 | 63 | 257 | 4.0 | 11.0 | 0.00 | 0.00 | 0.00 | 79 | 1014.0 |
| 20260831233327 | 63 | 263 | 6.0 | 11.0 | 0.00 | 0.00 | 0.00 | 79 | 1014.2 |
| 20260831232828 | 63 | 277 | 5.0 | 13.0 | 0.00 | 0.00 | 0.00 | 79 | 1014.1 |
| 20260831232329 | 63 | 258 | 7.0 | 13.0 | 0.00 | 0.00 | 0.00 | 79 | 1014.0 |
| 20260831231813 | 63 | 255 | 6.0 | 14.0 | 0.00 | 0.00 | 0.00 | 78 | 1013.9 |
| 20260831231315 | 63 | 277 | 4.0 | 13.0 | 0.00 | 0.00 | 0.00 | 79 | 1013.9 |
| 20260831230819 | 63 | 233 | 6.0 | 14.0 | 0.00 | 0.00 | 0.00 | 79 | 1014.0 |
| 20260831230342 | 63 | 226 | 5.0 | 12.0 | 0.00 | 0.00 | 0.00 | 79 | 1013.9 |
| 20260831225823 | 63 | 279 | 7.0 | 14.0 | 0.00 | 0.00 | 0.00 | 79 | 1013.9 |
| 20260831225324 | 63 | 284 | 7.0 | 16.0 | 0.00 | 0.00 | 0.00 | 79 | 1013.8 |
| 20260831224825 | 63 | 274 | 7.0 | 16.0 | 0.00 | 0.00 | 0.00 | 79 | 1013.8 |
| 20260831224325 | 63 | 273 | 5.0 | 10.0 | 0.00 | 0.00 | 0.00 | 79 | 1013.6 |
| 20260831223826 | 63 | 264 | 5.0 | 9.0 | 0.00 | 0.00 | 0.00 | 80 | 1013.6 |
| 20260831223327 | 62 | 267 | 3.0 | 10.0 | 0.00 | 0.00 | 0.00 | 80 | 1013.5 |
| 20260831222828 | 62 | 267 | 2.0 | 6.0 | 0.00 | 0.00 | 0.00 | 81 | 1013.4 |
| 20260831222328 | 62 | 278 | 2.0 | 5.0 | 0.00 | 0.00 | 0.00 | 82 | 1013.4 |
| 20260831221829 | 61 | 254 | 3.0 | 5.0 | 0.00 | 0.00 | 0.00 | 84 | 1013.3 |
| 20260831221330 | 60 | 260 | 1.0 | 2.0 | 0.00 | 0.00 | 0.00 | 85 | 1013.4 |
| 20260831220846 | 60 | 259 | 0.0 | 1.0 | 0.00 | 0.00 | 0.00 | 86 | 1013.4 |
| 20260831220325 | 60 | 266 | 0.0 | 0.0 | 0.00 | 0.00 | 0.00 | 86 | 1013.3 |
| 20260831215825 | 59 | 266 | 0.0 | 0.0 | 0.00 | 0.00 | 0.00 | 85 | 1013.3 |
| 20260831215325 | 60 | 266 | 0.0 | 0.0 | 0.00 | 0.00 | 0.00 | 84 | 1013.4 |
| 20260831214826 | 60 | 266 | 0.0 | 0.0 | 0.00 | 0.00 | 0.00 | 83 | 1013.3 |
| 20260831214348 | 60 | 266 | 0.0 | 0.0 | 0.00 | 0.00 | 0.00 | 83 | 1013.1 |
| 20260831213832 | 60 | 266 | 0.0 | 0.0 | 0.00 | 0.00 | 0.00 | 82 | 1013.1 |
| 20260831213335 | 61 | 266 | 0.0 | 0.0 | 0.00 | 0.00 | 0.00 | 82 | 1013.0 |
| 20260831212859 | 61 | 266 | 0.0 | 0.0 | 0.00 | 0.00 | 0.00 | 82 | 1013.2 |
| 20260831212322 | 61 | 266 | 0.0 | 0.0 | 0.00 | 0.00 | 0.00 | 82 | 1013.2 |
| 20260831211825 | 61 | 266 | 0.0 | 1.0 | 0.00 | 0.00 | 0.00 | 81 | 1013.3 |
| 20260831211349 | 62 | 266 | 0.0 | 1.0 | 0.00 | 0.00 | 0.00 | 81 | 1013.2 |
| 20260831210830 | 62 | 266 | 0.0 | 2.0 | 0.00 | 0.00 | 0.00 | 80 | 1013.2 |
| 20260831210332 | 62 | 266 | 1.0 | 4.0 | 0.00 | 0.00 | 0.00 | 80 | 1013.3 |
| 20260831205812 | 63 | 264 | 2.0 | 5.0 | 0.00 | 0.00 | 0.00 | 79 | 1013.2 |
| 20260831205312 | 63 | 261 | 2.0 | 6.0 | 0.00 | 0.00 | 0.00 | 79 | 1013.2 |
| 20260831204814 | 63 | 265 | 3.0 | 6.0 | 0.00 | 0.00 | 0.00 | 79 | 1013.3 |
| 20260831204314 | 63 | 262 | 1.0 | 6.0 | 0.00 | 0.00 | 0.00 | 79 | 1013.1 |
| 20260831203835 | 63 | 267 | 2.0 | 7.0 | 0.00 | 0.00 | 0.00 | 79 | 1013.0 |
| 20260831203314 | 63 | 257 | 5.0 | 7.0 | 0.00 | 0.00 | 0.00 | 78 | 1013.1 |
| 20260831202815 | 64 | 257 | 2.0 | 7.0 | 0.00 | 0.00 | 0.00 | 78 | 1012.9 |
| 20260831202316 | 64 | 275 | 2.0 | 8.0 | 0.00 | 0.00 | 0.00 | 77 | 1013.0 |
| 20260831201820 | 64 | 245 | 4.0 | 8.0 | 0.00 | 0.00 | 0.00 | 76 | 1012.9 |
| 20260831201320 | 65 | 18 | 3.0 | 9.0 | 0.00 | 0.00 | 0.00 | 76 | 1012.7 |
| 20260831200838 | 65 | 271 | 3.0 | 14.0 | 0.00 | 0.00 | 0.00 | 76 | 1012.7 |
| 20260831200317 | 66 | 298 | 7.0 | 14.0 | 0.00 | 0.00 | 0.00 | 75 | 1013.0 |
| 20260831195817 | 67 | 252 | 6.0 | 13.0 | 0.00 | 0.00 | 0.00 | 72 | 1013.1 |
| 20260831195337 | 67 | 334 | 4.0 | 8.0 | 0.00 | 0.00 | 0.00 | 70 | 1013.0 |
| 20260831194838 | 68 | 278 | 2.0 | 8.0 | 0.00 | 0.00 | 0.00 | 69 | 1012.6 |
| 20260831194338 | 68 | 326 | 5.0 | 12.0 | 0.00 | 0.00 | 0.00 | 69 | 1012.5 |
| 20260831193819 | 68 | 281 | 5.0 | 9.0 | 0.00 | 0.00 | 0.00 | 68 | 1012.5 |
| 20260831193321 | 69 | 333 | 5.0 | 14.0 | 0.00 | 0.00 | 0.00 | 67 | 1012.4 |
| 20260831192824 | 70 | 286 | 4.0 | 14.0 | 0.00 | 0.00 | 0.00 | 65 | 1012.5 |
| 20260831192326 | 71 | 291 | 3.0 | 19.0 | 0.00 | 0.00 | 0.00 | 63 | 1012.3 |
| 20260831191829 | 72 | 284 | 4.0 | 19.0 | 0.00 | 0.00 | 0.00 | 62 | 1012.2 |
| 20260831191332 | 72 | 252 | 11.0 | 19.0 | 0.00 | 0.00 | 0.00 | 62 | 1012.0 |
| 20260831190813 | 72 | 288 | 7.0 | 13.0 | 0.00 | 0.00 | 0.00 | 62 | 1011.9 |
| 20260831190315 | 72 | 238 | 6.0 | 18.0 | 0.00 | 0.00 | 0.00 | 61 | 1011.7 |
| 20260831185817 | 72 | 165 | 6.0 | 18.0 | 0.00 | 0.00 | 0.00 | 61 | 1011.6 |
| 20260831185318 | 72 | 286 | 5.0 | 12.0 | 0.00 | 0.00 | 0.00 | 61 | 1011.7 |
| 20260831184821 | 72 | 252 | 4.0 | 10.0 | 0.00 | 0.00 | 0.00 | 60 | 1011.6 |
| 20260831184323 | 72 | 267 | 5.0 | 14.0 | 0.00 | 0.00 | 0.00 | 60 | 1011.5 |
| 20260831183825 | 72 | 219 | 7.0 | 14.0 | 0.00 | 0.00 | 0.00 | 60 | 1011.5 |
| 20260831183327 | 72 | 235 | 5.0 | 9.0 | 0.00 | 0.00 | 0.00 | 60 | 1011.2 |
| 20260831182830 | 72 | 206 | 2.0 | 6.0 | 0.00 | 0.00 | 0.00 | 60 | 1011.3 |
| 20260831182335 | 72 | 217 | 2.0 | 7.0 | 0.00 | 0.00 | 0.00 | 59 | 1011.2 |
| 20260831181818 | 73 | 257 | 3.0 | 7.0 | 0.00 | 0.00 | 0.00 | 59 | 1011.2 |
| 20260831180839 | 73 | 226 | 3.0 | 6.0 | 0.00 | 0.00 | 0.00 | 58 | 1011.2 |
| 20260831180323 | 73 | 258 | 2.0 | 6.0 | 0.00 | 0.00 | 0.00 | 58 | 1011.1 |
| 20260831175827 | 74 | 249 | 3.0 | 6.0 | 0.00 | 0.00 | 0.00 | 58 | 1011.1 |
| 20260831175312 | 74 | 258 | 1.0 | 7.0 | 0.00 | 0.00 | 0.00 | 57 | 1011.0 |
| 20260831174817 | 74 | 270 | 4.0 | 10.0 | 0.00 | 0.00 | 0.00 | 57 | 1011.0 |
| 20260831173822 | 74 | 270 | 5.0 | 11.0 | 0.00 | 0.00 | 0.00 | 56 | 1011.0 |
| 20260831173322 | 74 | 263 | 6.0 | 11.0 | 0.00 | 0.00 | 0.00 | 56 | 1011.1 |
| 20260831172822 | 75 | 267 | 7.0 | 13.0 | 0.00 | 0.00 | 0.00 | 56 | 1011.1 |
| 20260831172343 | 75 | 279 | 6.0 | 20.0 | 0.00 | 0.00 | 0.00 | 55 | 1011.0 |
| 20260831171823 | 75 | 187 | 7.0 | 18.0 | 0.00 | 0.00 | 0.00 | 55 | 1011.0 |
| 20260831171324 | 75 | 230 | 6.0 | 17.0 | 0.00 | 0.00 | 0.00 | 55 | 1011.0 |
| 20260831170824 | 76 | 252 | 8.0 | 17.0 | 0.00 | 0.00 | 0.00 | 55 | 1011.0 |
| 20260831170325 | 76 | 281 | 8.0 | 12.0 | 0.00 | 0.00 | 0.00 | 55 | 1010.9 |
| 20260831165829 | 76 | 252 | 6.0 | 16.0 | 0.00 | 0.00 | 0.00 | 55 | 1010.9 |
| 20260831165332 | 76 | 278 | 8.0 | 15.0 | 0.00 | 0.00 | 0.00 | 55 | 1010.8 |
| 20260831164835 | 76 | 257 | 5.0 | 15.0 | 0.00 | 0.00 | 0.00 | 56 | 1010.9 |
| 20260831164317 | 76 | 278 | 7.0 | 13.0 | 0.00 | 0.00 | 0.00 | 56 | 1011.0 |
| 20260831163820 | 76 | 246 | 7.0 | 14.0 | 0.00 | 0.00 | 0.00 | 56 | 1011.0 |
| 20260831163324 | 76 | 266 | 6.0 | 14.0 | 0.00 | 0.00 | 0.00 | 56 | 1010.9 |
| 20260831162827 | 76 | 238 | 5.0 | 10.0 | 0.00 | 0.00 | 0.00 | 57 | 1010.9 |
| 20260831162329 | 76 | 272 | 3.0 | 9.0 | 0.00 | 0.00 | 0.00 | 59 | 1010.9 |
| 20260831161813 | 76 | 271 | 4.0 | 12.0 | 0.00 | 0.00 | 0.00 | 59 | 1010.9 |
| 20260831161334 | 76 | 267 | 4.0 | 12.0 | 0.00 | 0.00 | 0.00 | 60 | 1010.9 |
| 20260831160838 | 76 | 259 | 5.0 | 10.0 | 0.00 | 0.00 | 0.00 | 60 | 1011.0 |
| 20260831160319 | 76 | 233 | 3.0 | 9.0 | 0.00 | 0.00 | 0.00 | 60 | 1010.8 |
| 20260831155824 | 76 | 226 | 4.0 | 9.0 | 0.00 | 0.00 | 0.00 | 61 | 1010.9 |
| 20260831155326 | 76 | 255 | 4.0 | 12.0 | 0.00 | 0.00 | 0.00 | 60 | 1010.9 |
| 20260831154829 | 76 | 224 | 6.0 | 12.0 | 0.00 | 0.00 | 0.00 | 59 | 1010.9 |
| 20260831154330 | 76 | 277 | 6.0 | 14.0 | 0.00 | 0.00 | 0.00 | 60 | 1010.9 |
| 20260831153812 | 76 | 217 | 5.0 | 16.0 | 0.00 | 0.00 | 0.00 | 60 | 1011.0 |
| 20260831153315 | 77 | 283 | 8.0 | 16.0 | 0.00 | 0.00 | 0.00 | 59 | 1011.0 |
| 20260831152816 | 77 | 219 | 4.0 | 10.0 | 0.00 | 0.00 | 0.00 | 60 | 1011.1 |
| 20260831152316 | 77 | 258 | 5.0 | 16.0 | 0.00 | 0.00 | 0.00 | 60 | 1011.1 |
| 20260831151818 | 76 | 225 | 9.0 | 16.0 | 0.00 | 0.00 | 0.00 | 59 | 1011.1 |
| 20260831151322 | 76 | 210 | 8.0 | 20.0 | 0.00 | 0.00 | 0.00 | 59 | 1011.2 |
| 20260831150825 | 76 | 278 | 8.0 | 20.0 | 0.00 | 0.00 | 0.00 | 60 | 1011.2 |
| 20260831150348 | 76 | 241 | 8.0 | 15.0 | 0.00 | 0.00 | 0.00 | 60 | 1011.2 |
| 20260831145831 | 76 | 231 | 8.0 | 15.0 | 0.00 | 0.00 | 0.00 | 61 | 1011.2 |
| 20260831145316 | 75 | 274 | 6.0 | 14.0 | 0.00 | 0.00 | 0.00 | 62 | 1011.2 |
| 20260831144821 | 75 | 248 | 5.0 | 15.0 | 0.00 | 0.00 | 0.00 | 62 | 1011.2 |
| 20260831143821 | 76 | 251 | 9.0 | 18.0 | 0.00 | 0.00 | 0.00 | 61 | 1011.2 |
| 20260831142836 | 76 | 229 | 6.0 | 18.0 | 0.00 | 0.00 | 0.00 | 64 | 1011.3 |
| 20260831142316 | 76 | 266 | 8.0 | 18.0 | 0.00 | 0.00 | 0.00 | 62 | 1011.2 |
| 20260831141817 | 76 | 248 | 7.0 | 13.0 | 0.00 | 0.00 | 0.00 | 63 | 1011.2 |
| 20260831141316 | 76 | 255 | 7.0 | 14.0 | 0.00 | 0.00 | 0.00 | 64 | 1011.2 |
| 20260831140817 | 76 | 263 | 6.0 | 18.0 | 0.00 | 0.00 | 0.00 | 66 | 1011.2 |
| 20260831140317 | 75 | 256 | 9.0 | 13.0 | 0.00 | 0.00 | 0.00 | 65 | 1011.3 |
| 20260831135817 | 75 | 270 | 3.0 | 11.0 | 0.00 | 0.00 | 0.00 | 67 | 1011.3 |
| 20260831135318 | 75 | 259 | 5.0 | 13.0 | 0.00 | 0.00 | 0.00 | 67 | 1011.4 |
| 20260831134815 | 75 | 257 | 6.0 | 13.0 | 0.00 | 0.00 | 0.00 | 68 | 1011.4 |
| 20260831134315 | 75 | 199 | 4.0 | 12.0 | 0.00 | 0.00 | 0.00 | 67 | 1011.4 |
| 20260831133817 | 76 | 181 | 5.0 | 12.0 | 0.00 | 0.00 | 0.00 | 67 | 1011.4 |
| 20260831133320 | 75 | 209 | 1.0 | 7.0 | 0.00 | 0.00 | 0.00 | 70 | 1011.4 |
| 20260831132822 | 74 | 231 | 2.0 | 9.0 | 0.00 | 0.00 | 0.00 | 71 | 1011.3 |
| 20260831132325 | 73 | 261 | 5.0 | 9.0 | 0.00 | 0.00 | 0.00 | 71 | 1011.4 |
| 20260831131828 | 73 | 287 | 4.0 | 12.0 | 0.00 | 0.00 | 0.00 | 71 | 1011.4 |
| 20260831131331 | 74 | 266 | 6.0 | 13.0 | 0.00 | 0.00 | 0.00 | 69 | 1011.4 |
| 20260831130814 | 74 | 245 | 5.0 | 13.0 | 0.00 | 0.00 | 0.00 | 69 | 1011.4 |
| 20260831130315 | 73 | 264 | 6.0 | 12.0 | 0.00 | 0.00 | 0.00 | 71 | 1011.4 |
| 20260831125817 | 74 | 233 | 6.0 | 11.0 | 0.00 | 0.00 | 0.00 | 71 | 1011.4 |
| 20260831125339 | 74 | 277 | 5.0 | 12.0 | 0.00 | 0.00 | 0.00 | 71 | 1011.4 |
| 20260831124820 | 74 | 262 | 7.0 | 12.0 | 0.00 | 0.00 | 0.00 | 71 | 1011.4 |
| 20260831124323 | 73 | 319 | 5.0 | 11.0 | 0.00 | 0.00 | 0.00 | 73 | 1011.4 |
| 20260831123827 | 72 | 229 | 5.0 | 14.0 | 0.00 | 0.00 | 0.00 | 74 | 1011.5 |
| 20260831123351 | 72 | 253 | 7.0 | 14.0 | 0.00 | 0.00 | 0.00 | 73 | 1011.6 |
| 20260831122834 | 72 | 205 | 7.0 | 12.0 | 0.00 | 0.00 | 0.00 | 74 | 1011.6 |
| 20260831122314 | 72 | 176 | 5.0 | 10.0 | 0.00 | 0.00 | 0.00 | 75 | 1011.5 |
| 20260831121817 | 72 | 233 | 6.0 | 10.0 | 0.00 | 0.00 | 0.00 | 75 | 1011.6 |
| 20260831121320 | 72 | 279 | 3.0 | 14.0 | 0.00 | 0.00 | 0.00 | 74 | 1011.5 |
| 20260831120823 | 72 | 268 | 7.0 | 14.0 | 0.00 | 0.00 | 0.00 | 74 | 1011.5 |
| 20260831120325 | 72 | 223 | 6.0 | 12.0 | 0.00 | 0.00 | 0.00 | 74 | 1011.5 |
| 20260831115826 | 72 | 234 | 7.0 | 13.0 | 0.00 | 0.00 | 0.00 | 74 | 1011.5 |
| 20260831115329 | 72 | 271 | 7.0 | 13.0 | 0.00 | 0.00 | 0.00 | 73 | 1011.4 |
| 20260831114830 | 72 | 264 | 6.0 | 12.0 | 0.00 | 0.00 | 0.00 | 73 | 1011.4 |
| 20260831114334 | 72 | 226 | 2.0 | 9.0 | 0.00 | 0.00 | 0.00 | 73 | 1011.4 |
| 20260831113816 | 72 | 242 | 5.0 | 13.0 | 0.00 | 0.00 | 0.00 | 74 | 1011.4 |
| 20260831113320 | 72 | 231 | 6.0 | 13.0 | 0.00 | 0.00 | 0.00 | 74 | 1011.5 |
| 20260831112823 | 72 | 236 | 6.0 | 12.0 | 0.00 | 0.00 | 0.00 | 74 | 1011.6 |
| 20260831112327 | 72 | 226 | 8.0 | 12.0 | 0.00 | 0.00 | 0.00 | 73 | 1011.6 |
| 20260831111831 | 72 | 272 | 5.0 | 10.0 | 0.00 | 0.00 | 0.00 | 73 | 1011.6 |
| 20260831111315 | 71 | 243 | 4.0 | 9.0 | 0.00 | 0.00 | 0.00 | 73 | 1011.6 |
| 20260831110818 | 71 | 184 | 6.0 | 11.0 | 0.00 | 0.00 | 0.00 | 73 | 1011.6 |
| 20260831110321 | 72 | 236 | 6.0 | 11.0 | 0.00 | 0.00 | 0.00 | 72 | 1011.6 |
| 20260831105845 | 72 | 211 | 3.0 | 7.0 | 0.00 | 0.00 | 0.00 | 72 | 1011.5 |
| 20260831105325 | 72 | 236 | 3.0 | 6.0 | 0.00 | 0.00 | 0.00 | 71 | 1011.6 |
| 20260831104826 | 72 | 271 | 4.0 | 6.0 | 0.00 | 0.00 | 0.00 | 71 | 1011.6 |
| 20260831104326 | 73 | 278 | 4.0 | 8.0 | 0.00 | 0.00 | 0.00 | 71 | 1011.6 |
| 20260831103826 | 73 | 288 | 1.0 | 6.0 | 0.00 | 0.00 | 0.00 | 71 | 1011.6 |
| 20260831103348 | 73 | 276 | 0.0 | 8.0 | 0.00 | 0.00 | 0.00 | 71 | 1011.6 |
| 20260831102829 | 73 | 271 | 1.0 | 8.0 | 0.00 | 0.00 | 0.00 | 71 | 1011.6 |
| 20260831102344 | 73 | 318 | 4.0 | 8.0 | 0.00 | 0.00 | 0.00 | 70 | 1011.7 |
| 20260831101825 | 72 | 245 | 2.0 | 9.0 | 0.00 | 0.00 | 0.00 | 72 | 1011.7 |
| 20260831101326 | 72 | 269 | 5.0 | 9.0 | 0.00 | 0.00 | 0.00 | 72 | 1011.6 |
| 20260831100828 | 72 | 251 | 3.0 | 7.0 | 0.00 | 0.00 | 0.00 | 73 | 1011.8 |
| 20260831100331 | 71 | 242 | 4.0 | 6.0 | 0.00 | 0.00 | 0.00 | 74 | 1011.8 |